User: anonymous   Login
Location: Unspecified
(0.0000°N, 0.0000°E)
Time: 08:09:39
(UTC+00:00)
Language:

NOAA 19 - Orbit

View from above orbital plane
View from above orbital plane
View from above satellite
View from above satellite

Ground track
Ground track

The orbit data is extracted from the following two-line orbital elements,

1 33591U 09005A   20191.90640617 +.00000037 +00000-0 +45691-4 0  9990
2 33591 099.1947 197.8380 0014256 017.3000 342.8653 14.12420240588302
Epoch (UTC): 09 July 2020 21:45:13
Eccentricity: 0.0014256
inclination: 99.1947°
perigee height: 841 km
apogee height: 861 km
right ascension of ascending node: 197.8380°
argument of perigee: 17.3000°
revolutions per day: 14.12420240
mean anomaly at epoch: 342.8653°
orbit number at epoch: 58830

The dashed part of the orbit path shows where the satellite is in the earth's shadow,  

DLR